Wind_Speed
17 16 16 15 14 13 12 12 11 10 9 8 8 7 7 7 8 8 8 9 9 9 9 9 9 10 11 12 13 13 14 15 16 17 18 19 20 21 22 23 23 24 24
18 17 17 16 15 14 13 12 11 10 10 9 8 8 8 8 7 7 7 8 8 8 9 9 10 11 12 13 14 15 16 16 17 18 20 21 22 23 24 24 25 26 26
18 18 17 17 16 15 14 13 12 11 10 9 8 8 7 7 7 7 7 8 8 9 10 10 11 13 13 14 15 16 17 18 19 19 21 22 23 24 25 26 26 27 28
19 19 18 18 16 15 14 13 12 10 9 9 8 7 7 7 7 7 8 8 8 9 10 11 12 14 14 15 16 17 18 19 20 21 22 23 24 25 26 27 28 29 29
19 19 19 18 17 15 14 13 11 10 9 9 8 8 8 8 8 8 8 8 9 10 11 12 13 14 15 16 17 18 19 21 21 22 23 24 25 26 27 28 29 30 30
20 19 19 18 17 16 14 13 12 11 10 9 9 8 8 8 8 8 8 9 10 11 12 13 14 14 16 17 18 20 21 22 23 24 25 26 27 27 28 29 30 30 31
20 19 19 18 17 16 15 13 12 11 10 9 9 8 8 8 8 8 9 10 11 12 13 14 15 16 17 18 20 21 22 23 24 25 26 27 27 28 29 30 30 31 32
21 20 20 19 18 17 15 14 13 11 11 10 9 9 9 9 9 9 10 11 12 13 14 15 16 17 19 20 21 23 24 24 25 26 27 28 29 29 30 31 31 32 33
22 21 20 20 19 17 16 15 13 12 11 11 10 10 9 9 9 10 10 12 13 14 15 16 17 19 20 22 23 24 25 26 27 28 28 29 30 30 31 32 32 33 33
22 22 21 20 19 18 17 15 14 13 12 11 11 10 10 10 10 11 12 13 14 15 16 17 19 20 22 23 24 25 26 27 28 28 29 30 31 31 32 32 33 33 34
22 22 22 21 20 19 18 16 15 14 13 12 11 11 11 11 12 12 13 14 15 16 17 18 20 22 23 24 25 26 27 27 28 29 30 31 31 32 32 32 33 33 34
24 23 22 22 21 20 18 17 16 15 13 13 12 12 12 12 13 13 14 15 16 17 19 20 22 23 24 25 26 27 28 28 29 30 31 31 31 32 32 33 33 34 34
25 24 23 22 21 20 19 18 16 15 14 14 13 13 13 13 14 14 15 16 17 19 20 22 23 24 25 25 26 27 28 29 29 30 31 31 32 32 32 33 33 34 34
25 25 23 23 22 21 20 18 17 16 15 15 14 14 14 14 15 15 16 17 19 20 21 23 24 24 25 26 27 28 29 30 30 31 31 32 32 32 33 33 33 34 34
27 25 24 23 23 22 21 20 18 17 16 16 15 15 15 15 15 16 17 18 20 21 22 23 24 25 26 27 28 29 30 30 30 31 31 32 32 32 33 33 34 34 34
28 27 26 25 24 23 22 21 19 18 18 17 16 16 16 16 16 17 18 19 21 22 23 24 25 26 26 27 28 29 30 31 31 32 32 32 32 33 33 33 33 33 33
30 29 27 26 25 24 23 22 21 20 19 18 18 17 17 17 18 18 19 20 22 23 24 25 25 26 26 27 28 29 30 31 32 32 32 32 32 32 33 33 33 33 33
32 30 29 28 26 25 24 23 22 21 20 19 19 19 19 19 19 19 20 22 23 24 24 25 25 26 27 28 29 30 31 32 32 32 33 33 33 32 32 33 33 33 34
33 32 31 29 28 27 26 25 23 22 21 21 20 20 20 20 20 21 22 23 23 24 25 26 26 27 28 29 30 31 32 32 33 33 33 33 33 33 33 33 33 34 35
35 34 32 31 30 29 27 26 25 24 23 22 21 21 21 21 22 22 23 24 24 25 26 26 27 28 29 30 31 32 33 33 33 33 33 33 33 33 34 34 34 35 36
37 35 33 32 31 30 28 27 26 26 25 24 23 22 23 23 23 24 24 25 25 26 26 27 28 29 30 31 32 32 33 34 34 34 34 34 34 34 35 35 35 36 37
38 37 35 34 32 31 30 29 28 27 26 25 24 24 24 24 25 25 25 26 26 27 27 28 29 30 31 32 33 33 34 34 34 34 34 35 35 35 36 36 37 37 38
40 38 36 35 34 33 32 31 30 29 27 27 26 26 26 26 26 26 27 27 28 28 29 29 30 31 32 33 34 34 35 34 35 35 35 36 36 36 37 37 38 39 39
41 39 38 37 36 35 34 33 31 30 29 29 28 28 28 27 27 28 28 28 29 29 30 30 31 32 33 34 34 35 35 35 35 35 36 37 37 37 38 39 39 40 40
43 41 40 39 38 36 35 34 33 31 31 31 30 29 29 29 29 29 29 29 30 30 31 32 32 33 34 34 35 35 36 36 37 36 36 37 38 38 39 40 40 41 42
45 43 42 40 39 37 36 35 34 33 33 32 31 31 30 30 30 30 30 30 31 31 32 33 33 34 35 35 35 36 36 37 37 37 38 38 38 39 40 41 42 42 44
Wind_Direction
227 228 228 229 229 229 232 235 238 242 245 248 253 258 261 265 271 279 284 290 293 296 300 303 304 307 309 310 310 309 308 308 307 307 307 307 307 306 305 305 303 302 301
227 228 229 230 230 230 232 236 240 241 244 246 253 258 263 268 274 278 284 289 292 295 300 303 305 307 308 309 309 309 309 308 307 307 307 307 306 305 304 303 302 301 300
228 229 229 230 230 230 232 236 238 241 243 247 250 255 261 268 274 278 283 288 293 298 300 303 305 307 308 308 309 309 309 308 308 308 307 306 305 305 304 303 301 301 300
228 229 229 230 229 230 232 233 236 238 241 243 246 252 258 265 273 279 284 289 294 298 301 304 306 307 307 308 309 309 309 309 309 309 308 307 306 306 305 303 302 301 300
228 229 228 227 227 227 227 228 231 233 236 240 246 252 259 265 271 278 285 291 295 299 303 306 307 308 308 308 309 309 309 309 309 309 309 308 307 307 306 304 303 302 302
227 226 224 223 223 224 223 225 229 231 234 240 248 254 261 267 273 280 286 293 297 302 305 307 308 309 309 310 311 310 310 311 310 310 310 309 308 307 306 305 304 303 302
225 224 221 220 220 222 222 224 227 230 235 241 247 256 263 267 272 278 286 293 299 303 306 308 309 309 310 311 311 312 312 312 311 311 310 309 309 308 307 306 305 304 303
223 222 220 219 219 220 221 223 227 232 237 241 247 256 262 266 272 280 289 296 301 304 306 308 308 309 310 311 312 313 313 313 312 312 311 310 309 309 308 307 306 305 304
223 222 219 218 218 219 221 224 227 231 236 241 247 254 261 267 274 284 292 297 301 304 306 307 309 310 311 311 312 313 313 313 313 313 312 311 310 309 309 308 307 306 305
222 220 218 218 218 219 221 223 227 232 237 242 247 254 262 270 279 286 292 297 301 303 306 307 309 311 311 312 313 313 314 314 314 313 312 312 311 310 309 309 308 308 307
220 219 219 219 219 219 221 224 229 234 238 243 248 256 265 273 280 286 291 296 301 303 305 308 310 311 312 313 314 314 314 315 315 314 314 313 312 312 311 310 310 309 309
220 219 220 220 220 221 223 226 230 234 239 244 250 258 267 275 282 287 292 297 300 303 305 308 310 311 312 313 314 315 315 315 315 315 315 314 314 314 313 312 311 311 310
220 220 221 221 221 222 224 227 231 235 241 246 253 262 269 277 283 288 292 296 300 303 306 308 309 311 312 313 313 315 315 315 315 315 315 315 315 314 314 313 313 313 312
220 220 221 221 223 224 226 229 233 237 243 248 255 263 270 277 284 288 292 296 300 304 306 308 309 311 311 312 313 314 316 316 316 316 316 316 316 315 315 315 315 314 314
220 221 222 223 225 226 228 232 234 239 244 250 257 264 271 278 284 289 293 297 301 305 307 309 309 310 311 312 313 315 316 317 316 316 316 316 316 316 315 315 315 315 315
222 223 223 225 227 229 231 234 237 242 247 252 258 266 273 279 284 290 294 298 301 304 306 308 309 310 311 312 313 314 316 316 316 316 316 315 315 315 315 315 315 316 315
223 224 225 227 228 231 234 237 240 245 249 254 260 266 272 279 284 289 293 297 301 304 306 307 308 309 310 311 313 314 315 316 316 316 316 315 315 315 315 315 315 316 316
224 225 228 229 230 233 236 239 242 246 249 254 261 267 273 278 284 288 292 297 300 303 305 306 307 309 310 311 313 314 315 315 315 315 315 315 315 315 315 315 315 315 315
226 227 229 230 232 235 238 240 243 246 250 256 262 268 274 278 283 287 291 295 299 302 304 305 306 308 309 310 312 313 314 314 314 315 314 314 314 315 315 315 314 315 315
228 229 230 232 234 237 239 241 244 247 252 257 263 268 273 277 282 286 289 294 297 300 302 304 305 307 308 310 311 313 314 313 313 314 314 314 314 314 314 314 314 315 315
229 230 231 233 236 238 240 242 245 248 253 259 263 268 272 277 281 285 288 292 295 298 301 302 305 306 308 309 310 312 312 313 313 313 313 313 314 314 314 314 314 314 314
230 232 232 234 236 238 240 243 245 248 253 259 263 267 271 275 280 284 287 290 294 297 299 301 304 305 307 308 309 310 311 312 312 312 312 312 313 313 313 313 313 313 313
231 233 234 235 237 239 241 242 245 249 254 259 263 266 270 275 279 283 286 289 292 294 297 300 302 304 306 308 309 310 310 311 311 312 312 311 312 312 312 311 312 312 312
232 234 235 236 238 239 241 244 247 251 254 258 262 266 270 274 278 282 285 287 290 293 296 298 301 303 305 307 308 309 310 310 310 310 310 310 310 311 310 310 311 311 311
233 234 236 237 238 239 242 245 248 251 254 258 262 266 270 274 277 280 283 287 289 292 295 297 300 303 305 306 307 308 309 309 309 309 309 309 310 310 310 310 310 310 310
233 235 236 237 239 241 243 246 249 252 255 258 262 266 270 274 276 279 283 286 288 291 294 296 300 302 304 305 306 307 307 308 308 308 308 309 309 309 309 309 309 309 309
Height
5863 5864 5866 5868 5869 5871 5872 5873 5875 5875 5876 5877 5877 5878 5878 5878 5878 5878 5878 5878 5878 5878 5878 5877 5877 5876 5876 5875 5874 5873 5872 5871 5870 5869 5867 5866 5864 5863 5862 5860 5859 5857 5855
5860 5862 5864 5865 5867 5869 5870 5872 5873 5874 5874 5875 5876 5876 5876 5877 5877 5877 5877 5877 5877 5877 5877 5876 5875 5875 5874 5873 5872 5871 5870 5869 5868 5867 5865 5863 5862 5860 5859 5857 5855 5853 5852
5858 5859 5861 5863 5865 5867 5868 5870 5871 5872 5873 5873 5874 5875 5875 5875 5875 5876 5876 5876 5876 5876 5875 5875 5874 5873 5872 5871 5870 5869 5868 5867 5866 5864 5863 5861 5859 5857 5855 5853 5852 5850 5848
5855 5857 5859 5861 5863 5864 5866 5868 5869 5870 5871 5872 5873 5873 5874 5874 5874 5874 5874 5874 5874 5874 5874 5873 5872 5872 5871 5870 5868 5867 5866 5864 5863 5862 5860 5858 5856 5854 5852 5850 5848 5846 5843
5852 5854 5856 5858 5860 5862 5864 5866 5867 5868 5869 5870 5871 5872 5872 5873 5873 5873 5873 5873 5873 5872 5872 5871 5871 5870 5869 5867 5866 5865 5863 5862 5860 5858 5857 5855 5852 5850 5848 5846 5843 5841 5839
5849 5851 5853 5855 5858 5860 5862 5863 5865 5866 5867 5868 5869 5870 5870 5871 5871 5871 5871 5871 5871 5871 5870 5869 5869 5868 5866 5865 5863 5862 5860 5859 5857 5855 5853 5851 5848 5846 5844 5841 5839 5836 5834
5846 5848 5850 5853 5855 5857 5859 5861 5863 5864 5865 5866 5867 5868 5869 5869 5869 5870 5870 5870 5869 5869 5868 5867 5866 5865 5864 5862 5861 5859 5857 5855 5853 5851 5849 5847 5844 5842 5839 5837 5834 5831 5829
5843 5845 5847 5850 5852 5855 5857 5859 5860 5862 5863 5864 5865 5866 5867 5867 5867 5868 5868 5868 5867 5867 5866 5865 5864 5863 5861 5859 5858 5856 5854 5852 5850 5847 5845 5842 5840 5837 5834 5831 5829 5826 5823
5839 5842 5844 5847 5849 5852 5854 5856 5858 5860 5861 5862 5863 5864 5865 5865 5865 5866 5866 5865 5865 5864 5863 5862 5861 5860 5858 5856 5854 5852 5850 5848 5846 5843 5840 5838 5835 5832 5829 5826 5823 5820 5817
5836 5838 5841 5844 5847 5849 5851 5854 5855 5857 5859 5860 5861 5862 5863 5863 5863 5863 5863 5863 5862 5861 5860 5859 5858 5856 5855 5853 5851 5849 5846 5844 5841 5839 5836 5833 5830 5827 5824 5821 5818 5815 5812
5832 5835 5838 5841 5843 5846 5849 5851 5853 5854 5856 5857 5858 5859 5860 5860 5861 5860 5860 5860 5859 5859 5857 5856 5855 5853 5851 5849 5847 5845 5842 5840 5837 5834 5831 5828 5825 5822 5819 5816 5812 5809 5806
5829 5832 5834 5837 5840 5843 5846 5848 5850 5852 5853 5854 5856 5857 5857 5858 5858 5858 5857 5857 5856 5855 5854 5853 5851 5849 5847 5845 5843 5840 5838 5835 5833 5829 5826 5823 5820 5817 5814 5810 5807 5804 5800
5825 5828 5831 5834 5837 5840 5842 5845 5847 5848 5850 5851 5853 5854 5854 5855 5855 5855 5854 5854 5853 5852 5850 5849 5847 5845 5843 5841 5839 5836 5834 5831 5828 5825 5821 5818 5815 5812 5808 5805 5802 5798 5795
5821 5824 5827 5830 5833 5836 5839 5841 5843 5845 5847 5848 5849 5850 5851 5852 5852 5851 5851 5850 5849 5848 5847 5845 5843 5841 5839 5837 5834 5832 5829 5826 5823 5820 5817 5813 5810 5807 5803 5800 5796 5793 5789
5817 5820 5823 5827 5830 5833 5835 5838 5840 5842 5843 5845 5846 5847 5848 5848 5848 5848 5847 5846 5845 5844 5842 5841 5839 5837 5835 5833 5830 5827 5825 5822 5819 5815 5812 5808 5805 5801 5798 5794 5791 5787 5783
5812 5816 5819 5822 5826 5829 5831 5834 5836 5838 5840 5841 5842 5843 5844 5844 5844 5844 5843 5842 5841 5840 5838 5837 5835 5833 5830 5828 5825 5823 5820 5817 5814 5810 5807 5803 5799 5796 5792 5789 5785 5782 5778
5807 5811 5814 5818 5821 5824 5827 5829 5832 5834 5836 5837 5838 5839 5840 5840 5840 5839 5839 5838 5837 5835 5834 5832 5830 5828 5826 5823 5821 5818 5815 5812 5809 5805 5801 5798 5794 5790 5787 5783 5780 5776 5772
5802 5806 5810 5813 5817 5820 5822 5825 5827 5829 5831 5833 5834 5834 5835 5835 5835 5835 5834 5834 5832 5831 5829 5828 5826 5824 5821 5819 5816 5813 5810 5807 5803 5800 5796 5793 5789 5785 5781 5778 5774 5770 5766
5797 5801 5805 5808 5812 5815 5818 5820 5823 5825 5827 5828 5829 5830 5830 5831 5831 5830 5830 5829 5828 5826 5824 5823 5821 5819 5816 5814 5811 5808 5805 5801 5798 5794 5791 5787 5783 5780 5776 5772 5768 5764 5760
5791 5795 5800 5803 5806 5810 5813 5816 5818 5820 5822 5823 5824 5825 5825 5826 5826 5825 5825 5824 5823 5821 5819 5818 5816 5813 5811 5808 5806 5803 5799 5796 5792 5789 5785 5781 5778 5774 5770 5766 5762 5758 5754
5785 5790 5794 5798 5801 5805 5808 5811 5813 5815 5817 5818 5819 5820 5820 5820 5820 5820 5819 5818 5817 5816 5814 5812 5810 5808 5806 5803 5800 5797 5794 5790 5787 5783 5779 5775 5772 5768 5764 5760 5756 5752 5748
5779 5784 5788 5792 5796 5799 5803 5805 5807 5809 5811 5813 5814 5815 5815 5815 5815 5815 5814 5813 5812 5810 5809 5807 5805 5803 5800 5797 5794 5791 5788 5785 5781 5777 5774 5770 5766 5762 5758 5754 5749 5745 5741
5773 5777 5782 5786 5789 5793 5796 5798 5801 5804 5806 5807 5808 5809 5809 5809 5809 5809 5808 5807 5806 5805 5803 5801 5799 5797 5794 5791 5788 5785 5782 5779 5775 5771 5767 5763 5759 5755 5751 5747 5742 5738 5734
5766 5771 5775 5779 5782 5786 5789 5792 5795 5798 5800 5801 5802 5803 5803 5804 5804 5803 5802 5801 5800 5799 5797 5795 5793 5791 5788 5785 5782 5778 5775 5772 5769 5765 5761 5757 5753 5749 5744 5740 5735 5731 5726
5758 5763 5767 5771 5775 5779 5782 5786 5789 5791 5793 5794 5795 5797 5797 5798 5797 5797 5796 5795 5794 5793 5791 5789 5787 5784 5781 5778 5775 5772 5768 5765 5761 5758 5755 5751 5746 5741 5737 5733 5728 5723 5718
5750 5755 5759 5764 5768 5772 5775 5778 5781 5784 5786 5787 5789 5790 5791 5791 5791 5791 5790 5789 5788 5786 5784 5782 5780 5777 5774 5771 5768 5765 5761 5758 5754 5750 5747 5743 5739 5735 5730 5725 5720 5715 5710